Tracking 25378 objects as of 22-Jan-2022
HD Live streaming from Space Station
objects crossing your sky now

STARLINK-2465

Track STARLINK-2465 now!
10-day predictions
STARLINK-2465 is classified as:


NORAD ID: 48124
Int'l Code: 2021-027AJ
Perigee: 553.5 km
Apogee: 555.2 km
Inclination: 53.1 °
Period: 95.6 minutes
Semi major axis: 6925 km
RCS: Unknown
Launch date: April 7, 2021
Source: United States (US)
Launch site: AIR FORCE EASTERN TEST RANGE (AFETR)
aabbcc
Your satellite tracking list
Your tracking list is empty




NASA's NSSDC Master Catalog

Two Line Element Set (TLE):
1 48124U 21027AJ  22021.91665222  .00000691  00000-0  65312-4 0  9998
2 48124  53.0539  90.2873 0001202  74.6095 285.5026 15.06395166 44908
Source of the keplerian elements: AFSPC